Flag for U.S.A. Weather past 2 weeks in Houston, Texas, U.S.A.

Now
73 °F

Light rain. Mostly cloudy.


Feels Like: 71 °F
Forecast: 49 / 72 °F
Wind: 8 mph from South

Location: Houston Hobby Airport

Current Time: Dec 27, 2014 at 11:20:53 AM

Latest Report: Dec 27, 2014 at 10:53 AM


Visibility: 8 mi

Pressure: 30.04 "Hg

Humidity: 90%

Dew point: 70 °F

Location of HoustonLocation

Historic Weather in Houston — Graph

°F

Houston temperature yesterday

Maximum temperature yesterday: 71 °F (at 10:53 AM)
Minimum temperature yesterday: 57 °F (at 12:53 AM)
Average temperature yesterday: 67 °F

Past Weeks' High & Low Weather Summary

 TemperatureHumidityPressure
High77 °F (Dec 15, 11:53 AM)100% (Dec 14, 4:53 AM)30.33 "Hg (Dec 14, 4:53 AM)
Low37 °F (Dec 25, 5:53 AM)29% (Dec 16, 12:53 PM)29.59 "Hg (Dec 23, 5:53 AM)
Average60 °F79%30.05 "Hg
* Reported Dec 12 9:53 AM — Dec 27 9:53 AM, Houston, Weather by CustomWeather, © 2014

Note: Actual official high and low records may vary slightly from our data, if they occured in-between our weather recording intervals... More about our weather records

Advertising

Houston weather history for previous 24 hours

 ConditionsComfort  
Time TempWeatherWind HumidityBarometerVisibility
9:53 AM
Dec 27
73 °FMostly cloudy.10 mph90%30.06 "Hg8 mi
8:53 AM71 °FPartly sunny.7 mph93%30.04 "Hg8 mi
7:53 AM70 °FMostly cloudy.6 mph97%30.03 "Hg8 mi
6:53 AM70 °FMostly cloudy.7 mph97%30.01 "Hg9 mi
5:53 AM69 °FLow clouds.6 mph96%29.99 "Hg10 mi
4:53 AM69 °FLow clouds.6 mph96%29.98 "Hg8 mi
3:53 AM69 °FLow clouds.6 mph96%29.98 "Hg8 mi
2:53 AM69 °FMostly cloudy.7 mph96%29.99 "Hg8 mi
1:53 AM70 °FMostly cloudy.8 mph93%29.98 "Hg9 mi
12:53 AM70 °FMostly cloudy.10 mph93%30.00 "Hg9 mi
11:53 PM
Dec 26
70 °FMostly cloudy.7 mph93%30.01 "Hg10 mi
10:53 PM70 °FOvercast.7 mph90%30.01 "Hg10 mi
9:53 PM70 °FOvercast.8 mph87%30.02 "Hg10 mi
8:53 PM70 °FMostly cloudy.8 mph84%30.01 "Hg10 mi
7:53 PM69 °FMostly cloudy.8 mph84%29.98 "Hg10 mi
6:53 PM69 °FMostly cloudy.10 mph84%29.98 "Hg10 mi
5:53 PM69 °FMostly cloudy.10 mph81%29.96 "Hg10 mi
4:53 PM70 °FOvercast.9 mph79%29.96 "Hg10 mi
3:53 PM70 °FOvercast.9 mph79%29.96 "Hg10 mi
2:53 PM71 °FMostly cloudy.15 mph76%29.95 "Hg10 mi
1:53 PM71 °FMostly cloudy.13 mph76%29.96 "Hg10 mi
12:53 PM68 °FMostly cloudy.10 mph87%29.98 "Hg10 mi
11:53 AM71 °FMore clouds than sun.15 mph73%30.01 "Hg10 mi
Weather by CustomWeather, © 2014

See weather overviewHow to use our weather pages